Time,TemperatureF,DewpointF,PressureIn,WindDirection,WindDirectionDegrees,WindSpeedMPH,WindSpeedGustMPH,Humidity,HourlyPrecipIn,Conditions,Clouds,dailyrainin,SolarRadiationWatts/m^2,SoftwareType,DateUTC
2013-07-27 07:28:00,0.0,0.0,30.03,North,0,2.9,2.9,0,0.00,,---,0.00,0.00,VWS V14.01,2013-07-27 12:28:00,
2013-07-27 07:29:00,0.0,0.0,30.03,North,0,2.9,2.9,0,0.00,,---,0.00,0.00,VWS V14.01,2013-07-27 12:29:00,
2013-07-27 07:30:00,57.4,43.6,30.03,North,0,3.4,3.4,60,0.00,,---,0.00,0.00,VWS V14.01,2013-07-27 12:30:00,
2013-07-27 07:36:00,57.4,43.6,30.03,NNW,338,2.9,2.9,60,0.00,,---,0.00,0.00,VWS V14.01,2013-07-27 12:36:00,
2013-07-27 07:41:00,57.9,44.1,30.03,North,0,3.6,3.6,60,0.00,,---,0.00,0.00,VWS V14.01,2013-07-27 12:41:00,
2013-07-27 07:46:00,58.5,44.6,30.03,NNW,338,3.8,5.4,60,0.00,,---,0.00,0.00,VWS V14.01,2013-07-27 12:46:00,
2013-07-27 07:52:00,58.6,44.4,30.03,NNW,338,4.0,4.0,59,0.00,,---,0.00,0.00,VWS V14.01,2013-07-27 12:52:00,
2013-07-27 07:58:00,59.2,44.9,30.03,NNW,338,3.1,3.8,59,0.00,,---,0.00,0.00,VWS V14.01,2013-07-27 12:58:00,
2013-07-27 08:03:00,59.4,44.6,30.03,NNE,22,2.9,2.9,58,0.00,,---,0.00,0.00,VWS V14.01,2013-07-27 13:03:00,
2013-07-27 08:08:00,59.7,44.5,30.03,North,0,4.7,6.3,57,0.00,,---,0.00,0.00,VWS V14.01,2013-07-27 13:08:00,
2013-07-27 08:13:00,60.1,44.3,30.03,North,0,4.0,4.0,56,0.00,,---,0.00,0.00,VWS V14.01,2013-07-27 13:13:00,
2013-07-27 08:19:00,60.8,44.5,30.03,NNE,22,2.5,3.4,55,0.00,,---,0.00,0.00,VWS V14.01,2013-07-27 13:19:00,
2013-07-27 08:24:00,61.9,44.6,30.00,North,0,2.0,4.3,53,0.00,,---,0.00,0.00,VWS V14.01,2013-07-27 13:24:00,
2013-07-27 08:29:00,62.1,44.8,30.00,NNE,22,5.4,5.4,53,0.00,,---,0.00,0.00,VWS V14.01,2013-07-27 13:29:00,
2013-07-27 08:35:00,62.6,44.2,30.00,NNW,338,6.5,6.5,51,0.00,,---,0.00,0.00,VWS V14.01,2013-07-27 13:35:00,
2013-07-27 08:40:00,63.3,43.3,30.00,North,0,4.0,4.0,48,0.00,,---,0.00,0.00,VWS V14.01,2013-07-27 13:40:00,
2013-07-27 08:46:00,63.7,43.1,30.00,North,0,5.6,5.6,47,0.00,,---,0.00,0.00,VWS V14.01,2013-07-27 13:46:00,
2013-07-27 08:51:00,64.0,42.9,30.03,NNE,22,4.0,4.0,46,0.00,,---,0.00,0.00,VWS V14.01,2013-07-27 13:51:00,
2013-07-27 08:57:00,64.6,42.8,30.03,NNW,338,3.1,3.1,45,0.00,,---,0.00,0.00,VWS V14.01,2013-07-27 13:57:00,
2013-07-27 09:02:00,64.6,40.4,30.03,ENE,68,3.6,4.7,41,0.00,,---,0.00,0.00,VWS V14.01,2013-07-27 14:02:00,
2013-07-27 09:07:00,65.1,40.9,30.03,NE,45,3.8,4.0,41,0.00,,---,0.00,0.00,VWS V14.01,2013-07-27 14:07:00,
2013-07-27 09:13:00,65.3,41.0,30.00,North,0,4.9,4.9,41,0.00,,---,0.00,0.00,VWS V14.01,2013-07-27 14:13:00,
2013-07-27 09:18:00,66.4,40.0,30.00,NNE,22,1.3,1.3,38,0.00,,---,0.00,0.00,VWS V14.01,2013-07-27 14:18:00,
2013-07-27 09:30:00,67.3,38.0,0.00,North,0,4.9,8.1,34,0.00,,---,0.00,0.00,VWS V14.01,2013-07-27 14:30:00,
2013-07-27 09:36:00,0.0,0.0,30.03,NNE,22,3.6,3.6,0,0.00,,---,0.00,0.00,VWS V14.01,2013-07-27 14:36:00,
2013-07-27 09:41:00,67.8,38.5,30.03,NNE,22,3.4,4.0,34,0.00,,---,0.00,0.00,VWS V14.01,2013-07-27 14:41:00,
2013-07-27 09:46:00,68.2,38.0,30.03,NNW,338,3.6,6.3,33,0.00,,---,0.00,0.00,VWS V14.01,2013-07-27 14:46:00,
2013-07-27 09:51:00,68.2,38.0,30.03,North,0,3.6,3.6,33,0.00,,---,0.00,0.00,VWS V14.01,2013-07-27 14:51:00,
2013-07-27 09:56:00,68.5,35.0,30.03,NNE,22,6.0,7.6,29,0.00,,---,0.00,0.00,VWS V14.01,2013-07-27 14:56:00,
2013-07-27 10:02:00,68.5,35.0,30.03,NNE,22,6.5,6.5,29,0.00,,---,0.00,0.00,VWS V14.01,2013-07-27 15:02:00,
2013-07-27 10:08:00,68.7,34.3,30.03,NE,45,5.4,5.4,28,0.00,,---,0.00,0.00,VWS V14.01,2013-07-27 15:08:00,
2013-07-27 10:14:00,69.4,35.0,30.03,NNE,22,3.1,5.4,28,0.00,,---,0.00,0.00,VWS V14.01,2013-07-27 15:14:00,
2013-07-27 10:20:00,69.6,33.2,30.03,NW,315,6.5,6.5,26,0.00,,---,0.00,0.00,VWS V14.01,2013-07-27 15:20:00,
2013-07-27 10:25:00,70.0,32.6,30.03,NNE,22,5.8,5.8,25,16.83,,---,16.83,0.00,VWS V14.01,2013-07-27 15:25:00,
2013-07-27 10:31:00,70.0,32.6,30.03,North,0,3.6,3.6,25,16.83,,---,16.83,0.00,VWS V14.01,2013-07-27 15:31:00,
2013-07-27 10:37:00,70.0,32.6,30.06,NNW,338,8.1,8.1,25,16.83,,---,16.83,0.00,VWS V14.01,2013-07-27 15:37:00,
2013-07-27 10:42:00,70.2,30.7,30.06,North,0,7.4,7.4,23,63.23,,---,63.23,0.00,VWS V14.01,2013-07-27 15:42:00,
2013-07-27 10:48:00,70.3,30.8,30.06,NE,45,5.4,6.0,23,99.99,,---,99.99,0.00,VWS V14.01,2013-07-27 15:48:00,
2013-07-27 10:53:00,70.3,30.8,30.03,NW,315,6.9,6.9,23,99.99,,---,99.99,0.00,VWS V14.01,2013-07-27 15:53:00,
2013-07-27 10:59:00,70.5,31.0,30.03,NNE,22,6.3,6.3,23,21.95,,---,21.95,0.00,VWS V14.01,2013-07-27 15:59:00,
2013-07-27 11:05:00,71.1,31.4,30.03,NNW,338,4.3,5.8,23,99.99,,---,99.99,0.00,VWS V14.01,2013-07-27 16:05:00,
2013-07-27 11:11:00,71.1,31.4,30.03,North,0,7.6,7.6,23,29.63,,---,29.63,0.00,VWS V14.01,2013-07-27 16:11:00,
2013-07-27 11:17:00,70.7,30.0,30.03,NNW,338,5.6,6.3,22,29.63,,---,29.63,0.00,VWS V14.01,2013-07-27 16:17:00,
2013-07-27 11:23:00,70.5,29.9,30.03,NW,315,8.1,8.1,22,0.00,,---,32.19,0.00,VWS V14.01,2013-07-27 16:23:00,
2013-07-27 11:29:00,69.8,29.3,30.03,NNW,338,6.3,6.3,22,99.99,,---,99.99,0.00,VWS V14.01,2013-07-27 16:29:00,
2013-07-27 11:35:00,69.3,29.9,30.03,NNW,338,5.6,5.6,23,99.99,,---,99.99,0.00,VWS V14.01,2013-07-27 16:35:00,
2013-07-27 11:41:00,69.8,29.3,30.03,NW,315,7.8,7.8,22,99.99,,---,99.99,0.00,VWS V14.01,2013-07-27 16:41:00,
2013-07-27 11:48:00,70.9,30.2,30.03,NNW,338,6.0,6.0,22,99.99,,---,99.99,0.00,VWS V14.01,2013-07-27 16:48:00,
2013-07-27 11:54:00,72.0,31.1,30.03,WNW,292,6.7,6.7,22,0.00,,---,99.99,0.00,VWS V14.01,2013-07-27 16:54:00,
2013-07-27 12:00:00,72.1,30.1,30.03,NNW,338,6.5,7.8,21,99.99,,---,99.99,0.00,VWS V14.01,2013-07-27 17:00:00,
2013-07-27 12:06:00,72.3,30.2,30.00,NNW,338,8.7,10.5,21,0.00,,---,99.99,0.00,VWS V14.01,2013-07-27 17:06:00,
2013-07-27 12:11:00,72.5,27.9,30.00,North,0,7.8,7.8,19,0.00,,---,99.99,0.00,VWS V14.01,2013-07-27 17:11:00,
2013-07-27 12:17:00,72.3,27.8,30.00,WNW,292,7.8,10.3,19,99.99,,---,99.99,0.00,VWS V14.01,2013-07-27 17:17:00,
2013-07-27 12:22:00,72.3,30.2,30.00,NNW,338,9.6,9.6,21,99.99,,---,99.99,0.00,VWS V14.01,2013-07-27 17:22:00,
2013-07-27 12:27:00,72.7,30.5,30.00,NW,315,3.8,3.8,21,0.00,,---,99.99,0.00,VWS V14.01,2013-07-27 17:27:00,
2013-07-27 12:33:00,72.7,30.5,30.00,NNW,338,10.7,10.7,21,0.00,,---,99.99,0.00,VWS V14.01,2013-07-27 17:33:00,
2013-07-27 12:39:00,73.0,28.4,30.00,North,0,4.9,4.9,19,0.00,,---,99.99,0.00,VWS V14.01,2013-07-27 17:39:00,
2013-07-27 12:45:00,73.2,28.5,30.00,NNE,22,6.5,6.5,19,0.00,,---,99.99,0.00,VWS V14.01,2013-07-27 17:45:00,
2013-07-27 12:50:00,73.4,27.4,30.00,WNW,292,5.6,5.6,18,0.00,,---,99.99,0.00,VWS V14.01,2013-07-27 17:50:00,
2013-07-27 12:55:00,73.2,24.4,30.00,NW,315,5.6,5.6,16,0.00,,---,99.99,0.00,VWS V14.01,2013-07-27 17:55:00,
2013-07-27 13:00:00,74.1,25.1,30.00,NNW,338,8.5,8.5,16,0.00,,---,99.99,0.00,VWS V14.01,2013-07-27 18:00:00,
2013-07-27 13:05:00,73.6,24.7,30.00,NNE,22,9.8,9.8,16,7.68,,---,99.99,0.00,VWS V14.01,2013-07-27 18:05:00,
2013-07-27 13:11:00,73.0,24.2,30.00,NNE,22,6.3,8.7,16,7.68,,---,99.99,0.00,VWS V14.01,2013-07-27 18:11:00,
2013-07-27 13:17:00,73.6,24.7,30.00,NNW,338,8.1,8.7,16,0.00,,---,99.99,0.00,VWS V14.01,2013-07-27 18:17:00,
2013-07-27 13:22:00,73.6,24.7,30.00,NNW,338,6.3,8.1,16,0.00,,---,99.99,0.00,VWS V14.01,2013-07-27 18:22:00,
2013-07-27 13:28:00,73.4,24.5,30.00,NW,315,9.2,9.2,16,0.00,,---,99.99,0.00,VWS V14.01,2013-07-27 18:28:00,
2013-07-27 13:33:00,73.6,24.7,30.00,NNW,338,4.0,4.0,16,0.00,,---,99.99,0.00,VWS V14.01,2013-07-27 18:33:00,
2013-07-27 13:39:00,73.2,24.4,30.00,NNW,338,8.1,8.1,16,0.00,,---,99.99,0.00,VWS V14.01,2013-07-27 18:39:00,
2013-07-27 13:45:00,73.2,24.4,30.00,NNE,22,6.0,6.0,16,0.00,,---,99.99,0.00,VWS V14.01,2013-07-27 18:45:00,
2013-07-27 13:51:00,74.3,25.2,30.00,NNW,338,4.0,7.4,16,0.00,,---,99.99,0.00,VWS V14.01,2013-07-27 18:51:00,
2013-07-27 13:56:00,74.3,25.2,30.00,NNW,338,8.5,11.9,16,0.00,,---,99.99,0.00,VWS V14.01,2013-07-27 18:56:00,
2013-07-27 14:01:00,74.7,25.5,30.00,NNE,22,6.5,6.5,16,0.00,,---,99.99,0.00,VWS V14.01,2013-07-27 19:01:00,
2013-07-27 14:07:00,74.7,25.5,30.00,NNW,338,8.1,8.1,16,0.00,,---,99.99,0.00,VWS V14.01,2013-07-27 19:07:00,
2013-07-27 14:12:00,74.7,25.5,30.00,NNW,338,10.7,12.5,16,0.00,,---,99.99,0.00,VWS V14.01,2013-07-27 19:12:00,
2013-07-27 14:18:00,74.8,25.7,29.97,NNE,22,4.9,5.4,16,0.00,,---,99.99,0.00,VWS V14.01,2013-07-27 19:18:00,
2013-07-27 14:23:00,75.6,24.7,29.97,WNW,292,10.1,10.1,15,0.00,,---,99.99,0.00,VWS V14.01,2013-07-27 19:23:00,
2013-07-27 14:28:00,75.6,24.7,29.97,WNW,292,4.0,11.9,15,0.00,,---,99.99,0.00,VWS V14.01,2013-07-27 19:28:00,
2013-07-27 14:33:00,75.6,24.7,29.97,WNW,292,4.0,4.0,15,0.00,,---,99.99,0.00,VWS V14.01,2013-07-27 19:33:00,
2013-07-27 14:38:00,75.7,24.9,29.97,NNW,338,7.6,7.6,15,0.00,,---,99.99,0.00,VWS V14.01,2013-07-27 19:38:00,
2013-07-27 14:44:00,75.9,25.0,29.97,NNW,338,5.8,8.1,15,0.00,,---,99.99,0.00,VWS V14.01,2013-07-27 19:44:00,
2013-07-27 14:49:00,75.9,25.0,29.97,WSW,248,8.5,8.5,15,0.00,,---,99.99,0.00,VWS V14.01,2013-07-27 19:49:00,
2013-07-27 14:50:00,75.9,25.0,29.97,NNW,338,4.5,8.5,15,0.00,,---,99.99,0.00,VWS V14.01,2013-07-27 19:50:00,
2013-07-27 14:55:00,75.9,25.0,29.97,NW,315,8.5,8.5,15,0.00,,---,99.99,0.00,VWS V14.01,2013-07-27 19:55:00,
2013-07-27 15:01:00,76.1,25.1,29.97,NNE,22,8.5,8.5,15,0.00,,---,99.99,0.00,VWS V14.01,2013-07-27 20:01:00,
2013-07-27 15:07:00,75.4,24.6,29.97,NNW,338,8.1,9.8,15,0.00,,---,99.99,0.00,VWS V14.01,2013-07-27 20:07:00,
2013-07-27 15:13:00,75.4,24.6,29.97,NW,315,3.6,3.6,15,0.00,,---,99.99,0.00,VWS V14.01,2013-07-27 20:13:00,
2013-07-27 15:19:00,76.1,25.1,29.97,NW,315,9.6,9.6,15,0.00,,---,99.99,0.00,VWS V14.01,2013-07-27 20:19:00,
2013-07-27 15:25:00,76.1,25.1,29.94,NNW,338,6.5,6.5,15,0.00,,---,99.99,0.00,VWS V14.01,2013-07-27 20:25:00,
2013-07-27 15:31:00,76.1,25.1,29.94,NNE,22,6.5,9.8,15,0.00,,---,99.99,0.00,VWS V14.01,2013-07-27 20:31:00,
2013-07-27 15:37:00,75.9,25.0,29.94,NNW,338,7.4,8.1,15,0.00,,---,99.99,0.00,VWS V14.01,2013-07-27 20:37:00,
2013-07-27 15:42:00,76.1,25.1,29.94,NNE,22,5.8,6.3,15,0.00,,---,99.99,0.00,VWS V14.01,2013-07-27 20:42:00,
2013-07-27 15:48:00,76.3,25.3,29.97,NNW,338,7.6,12.1,15,0.00,,---,99.99,0.00,VWS V14.01,2013-07-27 20:48:00,
2013-07-27 15:54:00,76.3,25.3,29.97,NNW,338,4.7,4.7,15,0.00,,---,99.99,0.00,VWS V14.01,2013-07-27 20:54:00,
2013-07-27 16:00:00,75.4,24.6,29.97,West,270,7.2,9.6,15,0.00,,---,99.99,0.00,VWS V14.01,2013-07-27 21:00:00,
2013-07-27 16:06:00,76.6,25.6,29.97,NNW,338,8.1,8.1,15,0.00,,---,99.99,0.00,VWS V14.01,2013-07-27 21:06:00,
2013-07-27 16:12:00,76.5,25.4,29.97,North,0,4.3,13.0,15,0.00,,---,99.99,0.00,VWS V14.01,2013-07-27 21:12:00,
2013-07-27 16:18:00,76.5,25.4,29.97,NNE,22,7.4,12.8,15,0.00,,---,99.99,0.00,VWS V14.01,2013-07-27 21:18:00,
2013-07-27 16:24:00,76.1,25.1,29.97,NW,315,6.3,6.3,15,0.00,,---,99.99,0.00,VWS V14.01,2013-07-27 21:24:00,
2013-07-27 16:29:00,75.9,25.0,29.97,NNW,338,4.3,4.3,15,0.00,,---,99.99,0.00,VWS V14.01,2013-07-27 21:29:00,
2013-07-27 16:35:00,75.6,24.7,29.97,WNW,292,8.7,8.7,15,0.00,,---,99.99,0.00,VWS V14.01,2013-07-27 21:35:00,
2013-07-27 16:41:00,75.6,24.7,29.97,NNW,338,11.4,11.4,15,0.00,,---,99.99,0.00,VWS V14.01,2013-07-27 21:41:00,
2013-07-27 16:46:00,76.5,25.4,29.97,NW,315,6.5,7.8,15,0.00,,---,99.99,0.00,VWS V14.01,2013-07-27 21:46:00,
2013-07-27 16:52:00,76.6,25.6,29.97,North,0,4.3,6.3,15,0.00,,---,99.99,0.00,VWS V14.01,2013-07-27 21:52:00,
2013-07-27 16:58:00,76.5,25.4,29.97,WNW,292,6.5,6.5,15,0.00,,---,99.99,0.00,VWS V14.01,2013-07-27 21:58:00,
2013-07-27 17:04:00,75.9,25.0,29.97,NW,315,7.8,7.8,15,0.00,,---,99.99,0.00,VWS V14.01,2013-07-27 22:04:00,
2013-07-27 17:10:00,75.9,25.0,29.97,WNW,292,6.3,6.3,15,0.00,,---,99.99,0.00,VWS V14.01,2013-07-27 22:10:00,
2013-07-27 17:16:00,76.3,25.3,29.97,NNW,338,5.6,6.3,15,0.00,,---,99.99,0.00,VWS V14.01,2013-07-27 22:16:00,
2013-07-27 17:21:00,76.3,25.3,29.97,NNW,338,5.6,5.6,15,0.00,,---,99.99,0.00,VWS V14.01,2013-07-27 22:21:00,
2013-07-27 17:27:00,75.7,24.9,29.97,NW,315,5.6,6.5,15,0.00,,---,99.99,0.00,VWS V14.01,2013-07-27 22:27:00,
2013-07-27 17:33:00,75.9,25.0,29.97,NNW,338,5.6,5.6,15,0.00,,---,99.99,0.00,VWS V14.01,2013-07-27 22:33:00,
2013-07-27 17:39:00,75.9,25.0,29.97,WNW,292,4.9,6.3,15,0.00,,---,99.99,0.00,VWS V14.01,2013-07-27 22:39:00,
2013-07-27 17:45:00,75.6,24.7,29.97,NW,315,5.8,5.8,15,0.00,,---,99.99,0.00,VWS V14.01,2013-07-27 22:45:00,
2013-07-27 17:50:00,75.4,24.6,29.97,WNW,292,4.7,4.7,15,0.00,,---,99.99,0.00,VWS V14.01,2013-07-27 22:50:00,
2013-07-27 17:56:00,75.0,25.8,29.97,WNW,292,7.8,8.1,16,0.00,,---,99.99,0.00,VWS V14.01,2013-07-27 22:56:00,
2013-07-27 18:01:00,74.5,25.4,29.97,NW,315,8.1,9.8,16,0.00,,---,99.99,0.00,VWS V14.01,2013-07-27 23:01:00,
2013-07-27 18:07:00,74.7,25.5,29.97,North,0,5.6,6.3,16,0.00,,---,99.99,0.00,VWS V14.01,2013-07-27 23:07:00,
2013-07-27 18:12:00,74.7,25.5,29.97,North,0,5.8,5.8,16,0.00,,---,99.99,0.00,VWS V14.01,2013-07-27 23:12:00,
2013-07-27 18:18:00,74.7,25.5,29.97,North,0,7.4,7.4,16,0.00,,---,99.99,0.00,VWS V14.01,2013-07-27 23:18:00,
2013-07-27 18:24:00,74.8,25.7,29.97,NW,315,6.3,6.3,16,0.00,,---,99.99,0.00,VWS V14.01,2013-07-27 23:24:00,
2013-07-27 18:29:00,74.3,25.2,29.97,NNW,338,6.5,6.5,16,0.00,,---,99.99,0.00,VWS V14.01,2013-07-27 23:29:00,
2013-07-27 18:34:00,73.9,25.0,29.97,North,0,4.9,4.9,16,0.00,,---,99.99,0.00,VWS V14.01,2013-07-27 23:34:00,
2013-07-27 18:40:00,74.5,25.4,29.97,North,0,5.4,6.3,16,0.00,,---,99.99,0.00,VWS V14.01,2013-07-27 23:40:00,
2013-07-27 18:46:00,74.5,25.4,29.97,North,0,5.4,5.4,16,0.00,,---,99.99,0.00,VWS V14.01,2013-07-27 23:46:00,
2013-07-27 18:51:00,74.5,25.4,29.97,NNW,338,5.6,5.6,16,0.00,,---,99.99,0.00,VWS V14.01,2013-07-27 23:51:00,
2013-07-27 18:57:00,73.8,24.8,29.97,WNW,292,4.0,6.3,16,0.00,,---,99.99,0.00,VWS V14.01,2013-07-27 23:57:00,
2013-07-27 19:02:00,73.9,25.0,29.97,NNW,338,6.0,6.0,16,0.00,,---,99.99,0.00,VWS V14.01,2013-07-28 00:02:00,
2013-07-27 19:08:00,74.1,25.1,29.97,NW,315,6.3,6.3,16,0.00,,---,99.99,0.00,VWS V14.01,2013-07-28 00:08:00,
2013-07-27 19:14:00,73.9,25.0,29.97,NNW,338,5.8,6.0,16,0.00,,---,99.99,0.00,VWS V14.01,2013-07-28 00:14:00,
2013-07-27 19:19:00,73.8,24.8,29.94,NNE,22,17.9,17.9,16,0.00,,---,99.99,0.00,VWS V14.01,2013-07-28 00:19:00,
2013-07-27 19:25:00,73.8,24.8,29.94,NNW,338,2.9,2.9,16,0.00,,---,99.99,0.00,VWS V14.01,2013-07-28 00:25:00,
2013-07-27 19:30:00,73.4,24.5,29.94,NNW,338,6.5,7.2,16,0.00,,---,99.99,0.00,VWS V14.01,2013-07-28 00:30:00,
2013-07-27 19:35:00,73.0,24.2,29.94,NW,315,5.8,6.5,16,0.00,,---,99.99,0.00,VWS V14.01,2013-07-28 00:35:00,
2013-07-27 19:42:00,73.0,24.2,29.94,NNW,338,3.8,4.3,16,0.00,,---,99.99,0.00,VWS V14.01,2013-07-28 00:42:00,
2013-07-27 19:47:00,72.7,23.9,29.94,North,0,4.5,4.5,16,0.00,,---,99.99,0.00,VWS V14.01,2013-07-28 00:47:00,